Time,TemperatureF,DewpointF,PressureIn,WindDirection,WindDirectionDegrees,WindSpeedMPH,WindSpeedGustMPH,Humidity,HourlyPrecipIn,Conditions,Clouds,dailyrainin,SoftwareType,DateUTC
2013-03-30 00:00:00,46.3,32.8,28.95,West,263,0.0,0.0,59,0.00,,,0.00,VWS V13.01,2013-03-30 04:00:00,
2013-03-30 00:05:00,45.7,32.2,28.95,West,263,0.0,0.0,59,0.00,,,0.00,VWS V13.01,2013-03-30 04:05:00,
2013-03-30 00:10:00,45.3,32.2,28.95,West,263,0.0,0.0,60,0.00,,,0.00,VWS V13.01,2013-03-30 04:10:00,
2013-03-30 00:15:00,45.2,33.0,28.95,West,263,0.0,0.0,62,0.00,,,0.00,VWS V13.01,2013-03-30 04:15:00,
2013-03-30 00:20:00,45.0,32.4,28.95,West,263,0.0,0.0,61,0.00,,,0.00,VWS V13.01,2013-03-30 04:20:00,
2013-03-30 00:25:00,44.7,32.1,28.95,West,263,0.0,0.0,61,0.00,,,0.00,VWS V13.01,2013-03-30 04:25:00,
2013-03-30 00:30:00,44.3,32.1,28.95,West,263,0.0,0.0,62,0.00,,,0.00,VWS V13.01,2013-03-30 04:30:00,
2013-03-30 00:35:00,44.0,31.8,28.95,West,263,0.0,2.0,62,0.00,,,0.00,VWS V13.01,2013-03-30 04:35:00,
2013-03-30 00:40:00,44.0,32.6,28.95,West,263,0.0,1.0,64,0.00,,,0.00,VWS V13.01,2013-03-30 04:40:00,
2013-03-30 00:45:00,44.0,32.6,28.95,West,263,0.0,0.0,64,0.00,,,0.00,VWS V13.01,2013-03-30 04:45:00,
2013-03-30 00:50:00,44.1,33.1,28.95,West,263,0.0,0.0,65,0.00,,,0.00,VWS V13.01,2013-03-30 04:50:00,
2013-03-30 00:55:00,44.0,33.0,28.95,West,263,0.0,0.0,65,0.00,,,0.00,VWS V13.01,2013-03-30 04:55:00,
2013-03-30 01:00:00,44.0,33.4,28.95,West,263,3.0,3.0,66,0.00,,,0.00,VWS V13.01,2013-03-30 05:00:00,
2013-03-30 01:05:00,44.3,33.3,28.95,West,263,0.0,0.0,65,0.00,,,0.00,VWS V13.01,2013-03-30 05:05:00,
2013-03-30 01:10:00,44.2,32.8,28.95,West,263,0.0,0.0,64,0.00,,,0.00,VWS V13.01,2013-03-30 05:10:00,
2013-03-30 01:15:00,43.6,32.6,28.95,West,263,0.0,0.0,65,0.00,,,0.00,VWS V13.01,2013-03-30 05:15:00,
2013-03-30 01:20:00,42.9,32.0,28.95,West,263,0.0,0.0,65,0.00,,,0.00,VWS V13.01,2013-03-30 05:20:00,
2013-03-30 01:25:00,42.6,32.0,28.95,West,263,0.0,0.0,66,0.00,,,0.00,VWS V13.01,2013-03-30 05:25:00,
2013-03-30 01:30:00,42.4,32.2,28.95,West,263,0.0,0.0,67,0.00,,,0.00,VWS V13.01,2013-03-30 05:30:00,
2013-03-30 01:35:00,42.3,32.1,28.95,West,263,0.0,0.0,67,0.00,,,0.00,VWS V13.01,2013-03-30 05:35:00,
2013-03-30 01:40:00,42.0,31.9,28.95,West,263,0.0,0.0,67,0.00,,,0.00,VWS V13.01,2013-03-30 05:40:00,
2013-03-30 01:45:00,41.9,32.1,28.95,West,263,0.0,0.0,68,0.00,,,0.00,VWS V13.01,2013-03-30 05:45:00,
2013-03-30 01:50:00,42.3,32.5,28.95,WSW,251,0.0,0.0,68,0.00,,,0.00,VWS V13.01,2013-03-30 05:50:00,
2013-03-30 01:55:00,42.4,32.6,28.95,WSW,250,0.0,0.0,68,0.00,,,0.00,VWS V13.01,2013-03-30 05:55:00,
2013-03-30 02:00:00,42.1,32.3,28.95,WSW,250,0.0,0.0,68,0.00,,,0.00,VWS V13.01,2013-03-30 06:00:00,
2013-03-30 02:05:00,41.8,32.8,28.95,WSW,252,0.0,1.0,70,0.00,,,0.00,VWS V13.01,2013-03-30 06:05:00,
2013-03-30 02:10:00,42.0,32.9,28.95,WSW,252,0.0,0.0,70,0.00,,,0.00,VWS V13.01,2013-03-30 06:10:00,
2013-03-30 02:15:00,41.8,32.4,28.95,WSW,252,0.0,1.0,69,0.00,,,0.00,VWS V13.01,2013-03-30 06:15:00,
2013-03-30 02:20:00,41.6,32.6,28.95,WSW,250,0.0,0.0,70,0.00,,,0.00,VWS V13.01,2013-03-30 06:20:00,
2013-03-30 02:25:00,41.3,32.6,28.95,WSW,252,0.0,0.0,71,0.00,,,0.00,VWS V13.01,2013-03-30 06:25:00,
2013-03-30 02:30:00,40.9,32.2,28.95,WSW,251,0.0,0.0,71,0.00,,,0.00,VWS V13.01,2013-03-30 06:30:00,
2013-03-30 02:35:00,40.7,32.0,28.95,WSW,250,0.0,0.0,71,0.00,,,0.00,VWS V13.01,2013-03-30 06:35:00,
2013-03-30 02:40:00,40.6,32.3,28.95,WSW,252,0.0,0.0,72,0.00,,,0.00,VWS V13.01,2013-03-30 06:40:00,
2013-03-30 02:45:00,40.4,32.1,28.95,WSW,251,0.0,0.0,72,0.00,,,0.00,VWS V13.01,2013-03-30 06:45:00,
2013-03-30 02:50:00,40.2,31.9,28.95,WSW,252,0.0,0.0,72,0.00,,,0.00,VWS V13.01,2013-03-30 06:50:00,
2013-03-30 02:55:00,40.0,31.7,28.95,WSW,252,0.0,0.0,72,0.00,,,0.00,VWS V13.01,2013-03-30 06:55:00,
2013-03-30 03:00:00,39.9,31.6,28.95,WSW,252,0.0,0.0,72,0.00,,,0.00,VWS V13.01,2013-03-30 07:00:00,
2013-03-30 03:05:00,40.3,32.3,28.95,WSW,251,1.0,1.0,73,0.00,,,0.00,VWS V13.01,2013-03-30 07:05:00,
2013-03-30 03:10:00,41.1,32.4,28.95,WSW,252,0.0,1.0,71,0.00,,,0.00,VWS V13.01,2013-03-30 07:10:00,
2013-03-30 03:15:00,41.4,32.4,28.95,WSW,250,0.0,0.0,70,0.00,,,0.00,VWS V13.01,2013-03-30 07:15:00,
2013-03-30 03:20:00,40.8,31.8,28.95,WSW,251,0.0,0.0,70,0.00,,,0.00,VWS V13.01,2013-03-30 07:20:00,
2013-03-30 03:25:00,40.1,31.5,28.95,WSW,251,0.0,0.0,71,0.00,,,0.00,VWS V13.01,2013-03-30 07:25:00,
2013-03-30 03:30:00,39.6,31.3,28.95,WSW,252,0.0,0.0,72,0.00,,,0.00,VWS V13.01,2013-03-30 07:30:00,
2013-03-30 03:35:00,39.1,31.2,28.95,WSW,252,0.0,0.0,73,0.00,,,0.00,VWS V13.01,2013-03-30 07:35:00,
2013-03-30 03:40:00,38.8,30.9,28.95,WSW,252,0.0,0.0,73,0.00,,,0.00,VWS V13.01,2013-03-30 07:40:00,
2013-03-30 03:45:00,38.7,31.1,28.95,WSW,252,0.0,0.0,74,0.00,,,0.00,VWS V13.01,2013-03-30 07:45:00,
2013-03-30 03:50:00,38.7,31.1,28.95,WSW,252,0.0,0.0,74,0.00,,,0.00,VWS V13.01,2013-03-30 07:50:00,
2013-03-30 03:55:00,38.5,31.0,28.95,WSW,252,0.0,0.0,74,0.00,,,0.00,VWS V13.01,2013-03-30 07:55:00,
2013-03-30 04:00:00,38.3,31.1,28.95,WSW,252,0.0,0.0,75,0.00,,,0.00,VWS V13.01,2013-03-30 08:00:00,
2013-03-30 04:05:00,38.3,31.1,28.95,WSW,252,0.0,0.0,75,0.00,,,0.00,VWS V13.01,2013-03-30 08:05:00,
2013-03-30 04:10:00,38.4,31.5,28.95,WSW,252,0.0,0.0,76,0.00,,,0.00,VWS V13.01,2013-03-30 08:10:00,
2013-03-30 04:15:00,38.6,31.7,28.95,WSW,252,0.0,0.0,76,0.00,,,0.00,VWS V13.01,2013-03-30 08:15:00,
2013-03-30 04:20:00,38.6,31.4,28.95,WSW,252,0.0,0.0,75,0.00,,,0.00,VWS V13.01,2013-03-30 08:20:00,
2013-03-30 04:25:00,38.5,31.3,28.95,WSW,252,0.0,0.0,75,0.00,,,0.00,VWS V13.01,2013-03-30 08:25:00,
2013-03-30 04:30:00,38.4,31.2,28.95,WSW,252,0.0,0.0,75,0.00,,,0.00,VWS V13.01,2013-03-30 08:30:00,
2013-03-30 04:35:00,38.5,31.3,28.95,WSW,252,0.0,0.0,75,0.00,,,0.00,VWS V13.01,2013-03-30 08:35:00,
2013-03-30 04:40:00,38.6,31.4,28.95,WSW,251,0.0,0.0,75,0.00,,,0.00,VWS V13.01,2013-03-30 08:40:00,
2013-03-30 04:45:00,38.8,31.6,28.95,WSW,251,0.0,0.0,75,0.00,,,0.00,VWS V13.01,2013-03-30 08:45:00,
2013-03-30 04:50:00,39.1,31.9,28.95,WSW,251,0.0,0.0,75,0.00,,,0.00,VWS V13.01,2013-03-30 08:50:00,
2013-03-30 04:55:00,39.4,31.8,28.95,WSW,250,0.0,0.0,74,0.00,,,0.00,VWS V13.01,2013-03-30 08:55:00,
2013-03-30 05:00:00,39.9,32.3,28.95,WSW,250,0.0,0.0,74,0.00,,,0.00,VWS V13.01,2013-03-30 09:00:00,
2013-03-30 05:05:00,40.2,32.6,28.95,WSW,252,0.0,0.0,74,0.00,,,0.00,VWS V13.01,2013-03-30 09:05:00,
2013-03-30 05:10:00,40.5,32.5,28.95,WSW,251,0.0,1.0,73,0.00,,,0.00,VWS V13.01,2013-03-30 09:10:00,
2013-03-30 05:15:00,40.5,32.5,28.95,WSW,252,0.0,1.0,73,0.00,,,0.00,VWS V13.01,2013-03-30 09:15:00,
2013-03-30 05:20:00,40.5,32.5,28.95,WSW,252,1.0,2.0,73,0.00,,,0.00,VWS V13.01,2013-03-30 09:20:00,
2013-03-30 05:25:00,40.6,32.6,28.95,WSW,251,0.0,0.0,73,0.00,,,0.00,VWS V13.01,2013-03-30 09:25:00,
2013-03-30 05:30:00,40.8,32.8,28.95,WSW,251,0.0,3.0,73,0.00,,,0.00,VWS V13.01,2013-03-30 09:30:00,
2013-03-30 05:34:00,40.9,32.6,28.95,WSW,251,0.0,3.0,72,0.00,,,0.00,VWS V13.01,2013-03-30 09:34:00,
2013-03-30 05:39:00,40.8,32.5,28.95,WSW,251,0.0,1.0,72,0.00,,,0.00,VWS V13.01,2013-03-30 09:39:00,
2013-03-30 05:44:00,40.9,32.9,28.95,WSW,251,0.0,0.0,73,0.00,,,0.00,VWS V13.01,2013-03-30 09:44:00,
2013-03-30 05:49:00,41.1,32.8,28.95,WSW,251,0.0,1.0,72,0.00,,,0.00,VWS V13.01,2013-03-30 09:49:00,
2013-03-30 05:54:00,41.1,33.1,28.95,WSW,251,0.0,1.0,73,0.00,,,0.00,VWS V13.01,2013-03-30 09:54:00,
2013-03-30 05:59:00,41.1,32.4,28.95,WSW,250,0.0,1.0,71,0.00,,,0.00,VWS V13.01,2013-03-30 09:59:00,
2013-03-30 06:04:00,40.9,32.2,28.95,WSW,251,0.0,0.0,71,0.00,,,0.00,VWS V13.01,2013-03-30 10:04:00,
2013-03-30 06:09:00,40.8,32.1,28.95,WSW,251,0.0,0.0,71,0.00,,,0.00,VWS V13.01,2013-03-30 10:09:00,
2013-03-30 06:14:00,41.4,32.7,28.95,WSW,251,0.0,0.0,71,0.00,,,0.00,VWS V13.01,2013-03-30 10:14:00,
2013-03-30 06:19:00,41.4,32.7,28.95,WSW,250,0.0,0.0,71,0.00,,,0.00,VWS V13.01,2013-03-30 10:19:00,
2013-03-30 06:24:00,41.4,32.7,28.95,WSW,251,0.0,1.0,71,0.00,,,0.00,VWS V13.01,2013-03-30 10:24:00,
2013-03-30 06:29:00,41.3,32.3,28.95,WSW,251,0.0,0.0,70,0.00,,,0.00,VWS V13.01,2013-03-30 10:29:00,
2013-03-30 06:34:00,41.1,32.8,28.95,WSW,250,0.0,0.0,72,0.00,,,0.00,VWS V13.01,2013-03-30 10:34:00,
2013-03-30 06:39:00,41.1,32.4,28.95,WSW,250,0.0,0.0,71,0.00,,,0.00,VWS V13.01,2013-03-30 10:39:00,
2013-03-30 06:44:00,41.1,32.4,28.95,WSW,251,0.0,0.0,71,0.00,,,0.00,VWS V13.01,2013-03-30 10:44:00,
2013-03-30 06:49:00,41.0,32.3,28.95,WSW,251,0.0,0.0,71,0.00,,,0.00,VWS V13.01,2013-03-30 10:49:00,
2013-03-30 06:54:00,40.8,31.8,28.95,WSW,251,0.0,0.0,70,0.00,,,0.00,VWS V13.01,2013-03-30 10:54:00,
2013-03-30 06:59:00,41.1,32.4,28.95,WSW,250,0.0,0.0,71,0.00,,,0.00,VWS V13.01,2013-03-30 10:59:00,
2013-03-30 07:04:00,41.2,32.5,28.95,WSW,251,0.0,0.0,71,0.00,,,0.00,VWS V13.01,2013-03-30 11:04:00,
2013-03-30 07:09:00,41.1,32.4,28.95,WSW,250,0.0,0.0,71,0.00,,,0.00,VWS V13.01,2013-03-30 11:09:00,
2013-03-30 07:14:00,41.3,32.6,28.95,WSW,251,0.0,1.0,71,0.00,,,0.00,VWS V13.01,2013-03-30 11:14:00,
2013-03-30 07:19:00,41.2,32.2,28.95,WSW,251,0.0,0.0,70,0.00,,,0.00,VWS V13.01,2013-03-30 11:19:00,
2013-03-30 07:24:00,41.2,32.5,28.95,WSW,251,0.0,0.0,71,0.00,,,0.00,VWS V13.01,2013-03-30 11:24:00,
2013-03-30 07:29:00,41.3,32.6,28.95,WSW,251,0.0,0.0,71,0.00,,,0.00,VWS V13.01,2013-03-30 11:29:00,
2013-03-30 07:34:00,41.6,32.9,28.95,WSW,250,0.0,0.0,71,0.00,,,0.00,VWS V13.01,2013-03-30 11:34:00,
2013-03-30 07:39:00,41.6,32.9,28.95,WSW,251,0.0,0.0,71,0.00,,,0.00,VWS V13.01,2013-03-30 11:39:00,
2013-03-30 07:44:00,41.7,33.0,28.95,WSW,252,0.0,0.0,71,0.00,,,0.00,VWS V13.01,2013-03-30 11:44:00,
2013-03-30 07:49:00,41.9,32.8,28.95,WSW,251,0.0,0.0,70,0.00,,,0.00,VWS V13.01,2013-03-30 11:49:00,
2013-03-30 07:54:00,42.1,32.7,28.95,WSW,250,0.0,0.0,69,0.00,,,0.00,VWS V13.01,2013-03-30 11:54:00,
2013-03-30 07:59:00,42.5,33.1,28.95,WSW,251,0.0,0.0,69,0.00,,,0.00,VWS V13.01,2013-03-30 11:59:00,
2013-03-30 08:04:00,42.7,32.9,28.95,WSW,251,0.0,0.0,68,0.00,,,0.00,VWS V13.01,2013-03-30 12:04:00,
2013-03-30 08:09:00,43.1,33.3,28.95,WSW,252,0.0,0.0,68,0.00,,,0.00,VWS V13.01,2013-03-30 12:09:00,
2013-03-30 08:14:00,43.4,32.8,28.95,WSW,251,0.0,1.0,66,0.00,,,0.00,VWS V13.01,2013-03-30 12:14:00,
2013-03-30 08:19:00,43.8,32.8,28.95,WSW,251,0.0,0.0,65,0.00,,,0.00,VWS V13.01,2013-03-30 12:19:00,
2013-03-30 08:24:00,44.2,33.2,28.95,WSW,251,0.0,1.0,65,0.00,,,0.00,VWS V13.01,2013-03-30 12:24:00,
2013-03-30 08:29:00,44.7,33.3,28.95,WSW,250,1.0,2.0,64,0.00,,,0.00,VWS V13.01,2013-03-30 12:29:00,
2013-03-30 08:34:00,45.2,33.8,28.95,WSW,246,0.0,2.0,64,0.00,,,0.00,VWS V13.01,2013-03-30 12:34:00,
2013-03-30 08:39:00,45.8,33.5,28.95,WSW,250,0.0,3.0,62,0.00,,,0.00,VWS V13.01,2013-03-30 12:39:00,
2013-03-30 08:44:00,46.5,33.4,28.95,SW,230,1.0,6.0,60,0.00,,,0.00,VWS V13.01,2013-03-30 12:44:00,
2013-03-30 08:49:00,47.2,33.2,28.95,WSW,256,1.0,3.0,58,0.00,,,0.00,VWS V13.01,2013-03-30 12:49:00,
2013-03-30 08:54:00,48.2,33.7,28.95,WSW,257,1.0,3.0,57,0.00,,,0.00,VWS V13.01,2013-03-30 12:54:00,
2013-03-30 08:59:00,48.7,33.3,28.95,West,265,2.0,4.0,55,0.00,,,0.00,VWS V13.01,2013-03-30 12:59:00,
2013-03-30 09:04:00,49.2,33.3,28.95,West,259,1.0,4.0,54,0.00,,,0.00,VWS V13.01,2013-03-30 13:04:00,
2013-03-30 09:09:00,49.6,33.2,28.95,West,275,0.0,5.0,53,0.00,,,0.00,VWS V13.01,2013-03-30 13:09:00,
2013-03-30 09:14:00,50.1,33.2,28.95,West,272,1.0,3.0,52,0.00,,,0.00,VWS V13.01,2013-03-30 13:14:00,
2013-03-30 09:19:00,50.3,32.9,28.95,West,273,0.0,6.0,51,0.00,,,0.00,VWS V13.01,2013-03-30 13:19:00,
2013-03-30 09:24:00,50.6,33.6,28.95,West,277,2.0,4.0,52,0.00,,,0.00,VWS V13.01,2013-03-30 13:24:00,
2013-03-30 09:29:00,50.9,33.9,28.95,WNW,298,4.0,5.0,52,0.00,,,0.00,VWS V13.01,2013-03-30 13:29:00,
2013-03-30 09:34:00,51.3,33.8,28.95,WNW,295,0.0,5.0,51,0.00,,,0.00,VWS V13.01,2013-03-30 13:34:00,
2013-03-30 09:39:00,51.4,33.4,28.95,WNW,286,4.0,5.0,50,0.00,,,0.00,VWS V13.01,2013-03-30 13:39:00,
2013-03-30 09:44:00,51.5,33.5,28.95,WNW,288,3.0,5.0,50,0.00,,,0.00,VWS V13.01,2013-03-30 13:44:00,
2013-03-30 09:49:00,51.9,33.9,28.95,NW,306,3.0,5.0,50,0.00,,,0.00,VWS V13.01,2013-03-30 13:49:00,
2013-03-30 09:54:00,51.9,33.4,28.95,West,281,1.0,6.0,49,0.00,,,0.00,VWS V13.01,2013-03-30 13:54:00,
2013-03-30 09:59:00,52.4,34.3,28.95,WNW,283,1.0,4.0,50,0.00,,,0.00,VWS V13.01,2013-03-30 13:59:00,
2013-03-30 10:04:00,53.1,34.0,28.95,WNW,298,4.0,5.0,48,0.00,,,0.00,VWS V13.01,2013-03-30 14:04:00,
2013-03-30 10:09:00,54.0,35.3,28.95,WNW,298,0.0,3.0,49,0.00,,,0.00,VWS V13.01,2013-03-30 14:09:00,
2013-03-30 10:14:00,54.4,34.6,28.95,NE,46,3.0,5.0,47,0.00,,,0.00,VWS V13.01,2013-03-30 14:14:00,
2013-03-30 10:19:00,54.8,35.0,28.95,West,276,1.0,5.0,47,0.00,,,0.00,VWS V13.01,2013-03-30 14:19:00,
2013-03-30 10:24:00,54.6,34.2,28.95,WNW,295,3.0,5.0,46,0.00,,,0.00,VWS V13.01,2013-03-30 14:24:00,
2013-03-30 10:29:00,54.5,34.2,28.95,WNW,302,1.0,5.0,46,0.00,,,0.00,VWS V13.01,2013-03-30 14:29:00,
2013-03-30 10:34:00,55.1,34.7,28.95,NE,46,3.0,5.0,46,0.00,,,0.00,VWS V13.01,2013-03-30 14:34:00,
2013-03-30 10:39:00,55.9,35.4,28.95,NE,35,0.0,4.0,46,0.00,,,0.00,VWS V13.01,2013-03-30 14:39:00,
2013-03-30 10:44:00,56.6,34.4,28.95,WSW,238,1.0,5.0,43,0.00,,,0.00,VWS V13.01,2013-03-30 14:44:00,
2013-03-30 10:49:00,56.1,33.9,28.95,South,184,2.0,5.0,43,0.00,,,0.00,VWS V13.01,2013-03-30 14:49:00,
2013-03-30 10:54:00,55.4,33.3,28.95,SW,220,2.0,6.0,43,0.00,,,0.00,VWS V13.01,2013-03-30 14:54:00,
2013-03-30 10:59:00,55.7,33.6,28.95,WSW,248,1.0,5.0,43,0.00,,,0.00,VWS V13.01,2013-03-30 14:59:00,
2013-03-30 11:04:00,55.9,33.8,28.95,WNW,291,2.0,7.0,43,0.00,,,0.00,VWS V13.01,2013-03-30 15:04:00,
2013-03-30 11:09:00,55.7,33.6,28.95,WSW,246,4.0,11.0,43,0.00,,,0.00,VWS V13.01,2013-03-30 15:09:00,
2013-03-30 11:14:00,56.0,33.8,28.95,West,279,2.0,5.0,43,0.00,,,0.00,VWS V13.01,2013-03-30 15:14:00,
2013-03-30 11:19:00,56.6,35.0,28.95,West,271,4.0,7.0,44,0.00,,,0.00,VWS V13.01,2013-03-30 15:19:00,
2013-03-30 11:24:00,56.1,32.7,28.95,West,274,4.0,9.0,41,0.00,,,0.00,VWS V13.01,2013-03-30 15:24:00,
2013-03-30 11:29:00,56.6,32.6,28.95,SSW,209,4.0,8.0,40,0.00,,,0.00,VWS V13.01,2013-03-30 15:29:00,
2013-03-30 11:34:00,56.9,32.8,28.95,WSW,254,9.0,10.0,40,0.00,,,0.00,VWS V13.01,2013-03-30 15:34:00,
2013-03-30 11:39:00,56.7,32.7,28.95,WSW,253,3.0,10.0,40,0.00,,,0.00,VWS V13.01,2013-03-30 15:39:00,
2013-03-30 11:44:00,56.9,33.5,28.95,NW,304,1.0,9.0,41,0.00,,,0.00,VWS V13.01,2013-03-30 15:44:00,
2013-03-30 11:49:00,57.1,34.2,28.95,SW,234,4.0,11.0,42,0.00,,,0.00,VWS V13.01,2013-03-30 15:49:00,
2013-03-30 11:54:00,56.7,33.9,28.95,SW,222,2.0,11.0,42,0.00,,,0.00,VWS V13.01,2013-03-30 15:54:00,
2013-03-30 11:59:00,57.2,32.5,28.95,West,274,6.0,11.0,39,0.00,,,0.00,VWS V13.01,2013-03-30 15:59:00,
2013-03-30 12:04:00,57.1,33.0,28.95,WNW,303,5.0,7.0,40,0.00,,,0.00,VWS V13.01,2013-03-30 16:04:00,
2013-03-30 12:09:00,56.9,32.8,28.95,West,276,6.0,13.0,40,0.00,,,0.00,VWS V13.01,2013-03-30 16:09:00,
2013-03-30 12:14:00,56.8,32.8,28.95,WSW,244,4.0,10.0,40,0.00,,,0.00,VWS V13.01,2013-03-30 16:14:00,
2013-03-30 12:19:00,56.8,33.4,28.95,ENE,74,3.0,12.0,41,0.00,,,0.00,VWS V13.01,2013-03-30 16:19:00,
2013-03-30 12:24:00,57.4,33.3,28.95,WNW,290,3.0,5.0,40,0.00,,,0.00,VWS V13.01,2013-03-30 16:24:00,
2013-03-30 12:29:00,57.1,32.4,28.95,West,259,4.0,11.0,39,0.00,,,0.00,VWS V13.01,2013-03-30 16:29:00,
2013-03-30 12:34:00,56.8,33.4,28.95,NNW,331,1.0,12.0,41,0.00,,,0.00,VWS V13.01,2013-03-30 16:34:00,
2013-03-30 12:39:00,57.6,32.8,28.95,WNW,283,9.0,13.0,39,0.00,,,0.00,VWS V13.01,2013-03-30 16:39:00,
2013-03-30 12:44:00,57.9,33.1,28.95,SW,218,3.0,13.0,39,0.00,,,0.00,VWS V13.01,2013-03-30 16:44:00,
2013-03-30 12:49:00,58.3,32.8,28.95,West,272,6.0,10.0,38,0.00,,,0.00,VWS V13.01,2013-03-30 16:49:00,
2013-03-30 12:54:00,58.3,32.8,28.95,SW,232,0.0,11.0,38,0.00,,,0.00,VWS V13.01,2013-03-30 16:54:00,
2013-03-30 12:59:00,58.7,33.8,28.95,SSW,204,1.0,10.0,39,0.00,,,0.00,VWS V13.01,2013-03-30 16:59:00,
2013-03-30 13:04:00,58.7,33.8,28.95,South,182,6.0,10.0,39,0.00,,,0.00,VWS V13.01,2013-03-30 17:04:00,
2013-03-30 13:09:00,58.5,33.7,28.95,West,271,5.0,11.0,39,0.00,,,0.00,VWS V13.01,2013-03-30 17:09:00,
2013-03-30 13:14:00,58.1,33.3,28.95,WNW,302,2.0,10.0,39,0.00,,,0.00,VWS V13.01,2013-03-30 17:14:00,
2013-03-30 13:19:00,58.0,33.2,28.95,SW,227,6.0,10.0,39,0.00,,,0.00,VWS V13.01,2013-03-30 17:19:00,
2013-03-30 13:24:00,58.4,33.6,28.95,South,190,3.0,4.0,39,0.00,,,0.00,VWS V13.01,2013-03-30 17:24:00,
2013-03-30 13:29:00,59.0,34.1,28.95,WNW,294,4.0,7.0,39,0.00,,,0.00,VWS V13.01,2013-03-30 17:29:00,
2013-03-30 13:34:00,58.4,33.6,28.95,West,264,5.0,13.0,39,0.00,,,0.00,VWS V13.01,2013-03-30 17:34:00,
2013-03-30 13:39:00,57.7,33.6,28.95,West,277,6.0,13.0,40,0.00,,,0.00,VWS V13.01,2013-03-30 17:39:00,
2013-03-30 13:44:00,57.9,33.1,28.95,WNW,303,5.0,10.0,39,0.00,,,0.00,VWS V13.01,2013-03-30 17:44:00,
2013-03-30 13:49:00,58.2,33.4,28.95,SW,230,5.0,12.0,39,0.00,,,0.00,VWS V13.01,2013-03-30 17:49:00,
2013-03-30 13:54:00,58.1,33.3,28.95,WSW,256,2.0,10.0,39,0.00,,,0.00,VWS V13.01,2013-03-30 17:54:00,
2013-03-30 13:59:00,58.8,33.9,28.95,WSW,246,3.0,9.0,39,0.00,,,0.00,VWS V13.01,2013-03-30 17:59:00,
2013-03-30 14:04:00,59.6,34.6,28.95,West,273,6.0,10.0,39,0.00,,,0.00,VWS V13.01,2013-03-30 18:04:00,
2013-03-30 14:09:00,59.2,33.6,28.95,West,272,2.0,10.0,38,0.00,,,0.00,VWS V13.01,2013-03-30 18:09:00,
2013-03-30 14:14:00,59.0,32.8,28.95,West,269,6.0,11.0,37,0.00,,,0.00,VWS V13.01,2013-03-30 18:14:00,
2013-03-30 14:19:00,59.0,33.5,28.95,West,271,7.0,14.0,38,0.00,,,0.00,VWS V13.01,2013-03-30 18:19:00,
2013-03-30 14:24:00,59.3,33.7,28.95,SW,221,3.0,14.0,38,0.00,,,0.00,VWS V13.01,2013-03-30 18:24:00,
2013-03-30 14:29:00,59.4,33.1,28.95,West,273,3.0,16.0,37,0.00,,,0.00,VWS V13.01,2013-03-30 18:29:00,
2013-03-30 14:34:00,59.6,34.0,28.95,West,269,4.0,13.0,38,0.00,,,0.00,VWS V13.01,2013-03-30 18:34:00,
2013-03-30 14:39:00,59.6,33.3,28.95,WSW,241,6.0,13.0,37,0.00,,,0.00,VWS V13.01,2013-03-30 18:39:00,
2013-03-30 14:44:00,59.0,32.1,28.95,South,170,2.0,10.0,36,0.00,,,0.00,VWS V13.01,2013-03-30 18:44:00,
2013-03-30 14:49:00,59.4,33.1,28.95,WSW,257,6.0,8.0,37,0.00,,,0.00,VWS V13.01,2013-03-30 18:49:00,
2013-03-30 14:54:00,59.9,32.9,28.95,NW,323,1.0,6.0,36,0.00,,,0.00,VWS V13.01,2013-03-30 18:54:00,
2013-03-30 14:59:00,60.0,32.3,28.95,West,265,5.0,10.0,35,0.00,,,0.00,VWS V13.01,2013-03-30 18:59:00,
2013-03-30 15:04:00,60.1,33.8,28.95,WSW,243,10.0,12.0,37,0.00,,,0.00,VWS V13.01,2013-03-30 19:04:00,
2013-03-30 15:09:00,60.0,33.7,28.95,SSW,210,1.0,10.0,37,0.00,,,0.00,VWS V13.01,2013-03-30 19:09:00,
2013-03-30 15:14:00,60.2,33.2,28.95,West,275,8.0,11.0,36,0.00,,,0.00,VWS V13.01,2013-03-30 19:14:00,
2013-03-30 15:19:00,59.5,31.1,28.95,NW,306,0.0,10.0,34,0.00,,,0.00,VWS V13.01,2013-03-30 19:19:00,
2013-03-30 15:24:00,59.7,33.4,28.95,West,263,4.0,10.0,37,0.00,,,0.00,VWS V13.01,2013-03-30 19:24:00,
2013-03-30 15:29:00,59.5,32.5,28.95,WNW,300,6.0,6.0,36,0.00,,,0.00,VWS V13.01,2013-03-30 19:29:00,
2013-03-30 15:34:00,59.3,32.4,28.95,NW,321,5.0,5.0,36,0.00,,,0.00,VWS V13.01,2013-03-30 19:34:00,
2013-03-30 15:39:00,59.8,32.8,28.95,WSW,249,0.0,9.0,36,0.00,,,0.00,VWS V13.01,2013-03-30 19:39:00,
2013-03-30 15:44:00,60.2,33.2,28.95,SSW,203,1.0,1.0,36,0.00,,,0.00,VWS V13.01,2013-03-30 19:44:00,
2013-03-30 15:49:00,60.5,32.7,28.95,West,267,5.0,9.0,35,0.00,,,0.00,VWS V13.01,2013-03-30 19:49:00,
2013-03-30 15:54:00,60.6,32.1,28.95,South,183,5.0,5.0,34,0.00,,,0.00,VWS V13.01,2013-03-30 19:54:00,
2013-03-30 15:59:00,60.3,33.3,28.95,West,277,3.0,3.0,36,0.00,,,0.00,VWS V13.01,2013-03-30 19:59:00,
2013-03-30 16:04:00,60.5,33.4,28.95,West,279,6.0,11.0,36,0.00,,,0.00,VWS V13.01,2013-03-30 20:04:00,
2013-03-30 16:09:00,60.5,33.4,28.95,WSW,254,6.0,6.0,36,0.00,,,0.00,VWS V13.01,2013-03-30 20:09:00,
2013-03-30 16:14:00,60.1,33.1,28.95,SW,236,2.0,3.0,36,0.00,,,0.00,VWS V13.01,2013-03-30 20:14:00,
2013-03-30 16:19:00,60.0,33.0,28.95,WNW,286,3.0,3.0,36,0.00,,,0.00,VWS V13.01,2013-03-30 20:19:00,
2013-03-30 16:24:00,60.4,33.3,28.95,West,264,3.0,4.0,36,0.00,,,0.00,VWS V13.01,2013-03-30 20:24:00,
2013-03-30 16:29:00,60.6,33.5,28.95,South,170,1.0,1.0,36,0.00,,,0.00,VWS V13.01,2013-03-30 20:29:00,
2013-03-30 16:34:00,61.3,34.1,28.95,WSW,246,4.0,4.0,36,0.00,,,0.00,VWS V13.01,2013-03-30 20:34:00,
2013-03-30 16:39:00,60.9,33.8,28.95,WSW,245,3.0,4.0,36,0.00,,,0.00,VWS V13.01,2013-03-30 20:39:00,
2013-03-30 16:44:00,61.2,33.3,28.95,SW,229,2.0,4.0,35,0.00,,,0.00,VWS V13.01,2013-03-30 20:44:00,
2013-03-30 16:49:00,61.1,33.3,28.95,South,181,3.0,3.0,35,0.00,,,0.00,VWS V13.01,2013-03-30 20:49:00,
2013-03-30 16:54:00,60.7,32.2,28.95,SSE,163,8.0,9.0,34,0.00,,,0.00,VWS V13.01,2013-03-30 20:54:00,
2013-03-30 16:59:00,60.6,32.8,28.95,WSW,258,2.0,2.0,35,0.00,,,0.00,VWS V13.01,2013-03-30 20:59:00,
2013-03-30 17:04:00,61.1,32.5,28.95,West,259,4.0,5.0,34,0.00,,,0.00,VWS V13.01,2013-03-30 21:04:00,
2013-03-30 17:09:00,61.4,32.8,28.95,East,94,0.0,0.0,34,0.00,,,0.00,VWS V13.01,2013-03-30 21:09:00,
2013-03-30 17:14:00,61.3,33.4,28.95,WSW,245,2.0,3.0,35,0.00,,,0.00,VWS V13.01,2013-03-30 21:14:00,
2013-03-30 17:19:00,60.4,32.7,28.95,WSW,245,4.0,5.0,35,0.00,,,0.00,VWS V13.01,2013-03-30 21:19:00,
2013-03-30 17:24:00,60.2,32.5,28.95,West,261,5.0,5.0,35,0.00,,,0.00,VWS V13.01,2013-03-30 21:24:00,
2013-03-30 17:29:00,60.4,33.3,28.95,WSW,257,4.0,5.0,36,0.00,,,0.00,VWS V13.01,2013-03-30 21:29:00,
2013-03-30 17:34:00,60.3,32.6,28.95,WSW,248,2.0,3.0,35,0.00,,,0.00,VWS V13.01,2013-03-30 21:34:00,
2013-03-30 17:39:00,60.3,32.6,28.95,SW,225,1.0,1.0,35,0.00,,,0.00,VWS V13.01,2013-03-30 21:39:00,
2013-03-30 17:44:00,60.2,32.5,28.95,ESE,107,1.0,2.0,35,0.00,,,0.00,VWS V13.01,2013-03-30 21:44:00,
2013-03-30 17:49:00,60.4,33.3,28.95,ESE,107,1.0,2.0,36,0.00,,,0.00,VWS V13.01,2013-03-30 21:49:00,
2013-03-30 17:54:00,60.8,33.0,28.95,WNW,299,7.0,7.0,35,0.00,,,0.00,VWS V13.01,2013-03-30 21:54:00,
2013-03-30 17:59:00,60.6,32.1,28.95,WNW,292,1.0,2.0,34,0.00,,,0.00,VWS V13.01,2013-03-30 21:59:00,
2013-03-30 18:04:00,60.8,33.0,28.95,WSW,249,5.0,5.0,35,0.00,,,0.00,VWS V13.01,2013-03-30 22:04:00,
2013-03-30 18:09:00,60.5,33.4,28.95,West,265,3.0,6.0,36,0.00,,,0.00,VWS V13.01,2013-03-30 22:09:00,
2013-03-30 18:14:00,60.2,33.2,28.95,West,275,2.0,3.0,36,0.00,,,0.00,VWS V13.01,2013-03-30 22:14:00,
2013-03-30 18:19:00,60.0,33.0,28.95,West,278,0.0,0.0,36,0.00,,,0.00,VWS V13.01,2013-03-30 22:19:00,
2013-03-30 18:24:00,60.1,33.1,28.95,West,277,0.0,0.0,36,0.00,,,0.00,VWS V13.01,2013-03-30 22:24:00,
2013-03-30 18:29:00,60.2,33.2,28.95,West,277,0.0,0.0,36,0.00,,,0.00,VWS V13.01,2013-03-30 22:29:00,
2013-03-30 18:34:00,60.2,33.2,28.95,WSW,253,0.0,0.0,36,0.00,,,0.00,VWS V13.01,2013-03-30 22:34:00,
2013-03-30 18:39:00,59.8,32.8,28.95,NE,35,0.0,0.0,36,0.00,,,0.00,VWS V13.01,2013-03-30 22:39:00,
2013-03-30 18:44:00,59.8,33.5,28.95,NE,35,0.0,0.0,37,0.00,,,0.00,VWS V13.01,2013-03-30 22:44:00,
2013-03-30 18:49:00,59.4,33.1,28.95,NE,34,1.0,1.0,37,0.00,,,0.00,VWS V13.01,2013-03-30 22:49:00,
2013-03-30 18:54:00,59.0,32.8,28.95,NE,47,0.0,1.0,37,0.00,,,0.00,VWS V13.01,2013-03-30 22:54:00,
2013-03-30 18:59:00,59.0,33.5,28.95,NNE,28,0.0,0.0,38,0.00,,,0.00,VWS V13.01,2013-03-30 22:59:00,
2013-03-30 19:04:00,59.0,33.5,28.95,NNE,28,0.0,1.0,38,0.00,,,0.00,VWS V13.01,2013-03-30 23:04:00,
2013-03-30 19:09:00,59.0,33.5,28.95,NNW,327,0.0,0.0,38,0.00,,,0.00,VWS V13.01,2013-03-30 23:09:00,
2013-03-30 19:14:00,58.9,32.7,28.95,NNW,327,0.0,0.0,37,0.00,,,0.00,VWS V13.01,2013-03-30 23:14:00,
2013-03-30 19:19:00,58.5,33.7,28.95,NNW,327,0.0,0.0,39,0.00,,,0.00,VWS V13.01,2013-03-30 23:19:00,
2013-03-30 19:24:00,58.1,33.3,28.95,NNW,327,0.0,0.0,39,0.00,,,0.00,VWS V13.01,2013-03-30 23:24:00,
2013-03-30 19:29:00,57.8,33.0,28.95,NNW,327,0.0,0.0,39,0.00,,,0.00,VWS V13.01,2013-03-30 23:29:00,
2013-03-30 19:34:00,57.7,32.9,28.95,NNW,327,0.0,1.0,39,0.00,,,0.00,VWS V13.01,2013-03-30 23:34:00,
2013-03-30 19:39:00,57.7,32.9,28.95,NNW,327,0.0,0.0,39,0.00,,,0.00,VWS V13.01,2013-03-30 23:39:00,
2013-03-30 19:44:00,57.6,33.5,28.95,NNW,327,0.0,0.0,40,0.00,,,0.00,VWS V13.01,2013-03-30 23:44:00,
2013-03-30 19:49:00,56.9,33.5,28.95,NNW,327,0.0,0.0,41,0.00,,,0.00,VWS V13.01,2013-03-30 23:49:00,
2013-03-30 19:54:00,56.0,32.7,28.95,NNW,327,0.0,0.0,41,0.00,,,0.00,VWS V13.01,2013-03-30 23:54:00,
2013-03-30 19:59:00,55.3,32.0,28.95,NNW,327,0.0,0.0,41,0.00,,,0.00,VWS V13.01,2013-03-30 23:59:00,
2013-03-30 20:04:00,54.8,32.2,28.95,NNW,327,0.0,0.0,42,0.00,,,0.00,VWS V13.01,2013-03-31 00:04:00,
2013-03-30 20:09:00,54.5,31.9,28.95,NNW,327,0.0,0.0,42,0.00,,,0.00,VWS V13.01,2013-03-31 00:09:00,
2013-03-30 20:14:00,54.1,32.7,28.95,NNW,327,0.0,0.0,44,0.00,,,0.00,VWS V13.01,2013-03-31 00:14:00,
2013-03-30 20:19:00,54.0,32.6,28.95,NNW,327,0.0,0.0,44,0.00,,,0.00,VWS V13.01,2013-03-31 00:19:00,
2013-03-30 20:24:00,53.6,32.8,28.95,NNW,327,0.0,0.0,45,0.00,,,0.00,VWS V13.01,2013-03-31 00:24:00,
2013-03-30 20:29:00,53.3,32.5,28.95,NNW,327,0.0,0.0,45,0.00,,,0.00,VWS V13.01,2013-03-31 00:29:00,
2013-03-30 20:34:00,52.9,32.2,28.95,NNW,327,0.0,0.0,45,0.00,,,0.00,VWS V13.01,2013-03-31 00:34:00,
2013-03-30 20:39:00,52.4,32.2,28.95,NNW,327,0.0,0.0,46,0.00,,,0.00,VWS V13.01,2013-03-31 00:39:00,
2013-03-30 20:44:00,52.2,32.1,28.95,NNW,327,0.0,0.0,46,0.00,,,0.00,VWS V13.01,2013-03-31 00:44:00,
2013-03-30 20:49:00,51.9,32.3,28.95,NNW,327,0.0,0.0,47,0.00,,,0.00,VWS V13.01,2013-03-31 00:49:00,
2013-03-30 20:54:00,51.6,32.0,28.95,NNW,327,0.0,0.0,47,0.00,,,0.00,VWS V13.01,2013-03-31 00:54:00,
2013-03-30 20:59:00,51.4,32.4,28.95,NNW,327,0.0,0.0,48,0.00,,,0.00,VWS V13.01,2013-03-31 00:59:00,
2013-03-30 21:04:00,51.1,32.1,28.95,NNW,327,0.0,0.0,48,0.00,,,0.00,VWS V13.01,2013-03-31 01:04:00,
2013-03-30 21:09:00,51.0,32.0,28.95,NNW,327,0.0,0.0,48,0.00,,,0.00,VWS V13.01,2013-03-31 01:09:00,
2013-03-30 21:14:00,50.8,32.3,28.95,NNW,327,0.0,0.0,49,0.00,,,0.00,VWS V13.01,2013-03-31 01:14:00,
2013-03-30 21:19:00,50.8,32.3,28.95,NNW,327,0.0,0.0,49,0.00,,,0.00,VWS V13.01,2013-03-31 01:19:00,
2013-03-30 21:24:00,51.0,33.0,28.95,NNW,327,0.0,0.0,50,0.00,,,0.00,VWS V13.01,2013-03-31 01:24:00,
2013-03-30 21:29:00,51.2,32.7,28.95,NNW,327,0.0,0.0,49,0.00,,,0.00,VWS V13.01,2013-03-31 01:29:00,
2013-03-30 21:34:00,51.1,32.6,28.95,NNW,327,0.0,0.0,49,0.00,,,0.00,VWS V13.01,2013-03-31 01:34:00,
2013-03-30 21:39:00,50.9,32.4,28.95,NNW,327,0.0,0.0,49,0.00,,,0.00,VWS V13.01,2013-03-31 01:39:00,
2013-03-30 21:44:00,50.8,32.8,28.95,NNW,327,0.0,0.0,50,0.00,,,0.00,VWS V13.01,2013-03-31 01:44:00,
2013-03-30 21:49:00,50.9,32.9,28.95,NNW,329,3.0,3.0,50,0.00,,,0.00,VWS V13.01,2013-03-31 01:49:00,
2013-03-30 21:54:00,50.7,32.8,28.95,NNW,329,0.0,0.0,50,0.00,,,0.00,VWS V13.01,2013-03-31 01:54:00,
2013-03-30 21:59:00,50.6,33.2,28.95,NNW,329,0.0,0.0,51,0.00,,,0.00,VWS V13.01,2013-03-31 01:59:00,
2013-03-30 22:04:00,50.4,32.5,28.95,NNW,329,0.0,0.0,50,0.00,,,0.00,VWS V13.01,2013-03-31 02:04:00,
2013-03-30 22:09:00,50.2,32.3,28.95,NNW,329,0.0,1.0,50,0.00,,,0.00,VWS V13.01,2013-03-31 02:09:00,
2013-03-30 22:15:00,50.0,32.1,28.95,NNW,338,2.0,2.0,50,0.00,,,0.00,VWS V13.01,2013-03-31 02:15:00,
2013-03-30 22:20:00,50.5,32.6,28.95,NNE,26,1.0,2.0,50,0.00,,,0.00,VWS V13.01,2013-03-31 02:20:00,
2013-03-30 22:25:00,50.8,32.3,28.95,East,87,0.0,4.0,49,0.00,,,0.00,VWS V13.01,2013-03-31 02:25:00,
2013-03-30 22:30:00,51.0,32.5,28.95,ENE,75,1.0,3.0,49,0.00,,,0.00,VWS V13.01,2013-03-31 02:30:00,
2013-03-30 22:35:00,51.2,33.2,28.95,ESE,105,1.0,1.0,50,0.00,,,0.00,VWS V13.01,2013-03-31 02:35:00,
2013-03-30 22:40:00,51.0,33.0,28.95,ESE,105,1.0,1.0,50,0.00,,,0.00,VWS V13.01,2013-03-31 02:40:00,
2013-03-30 22:45:00,51.2,33.2,28.95,East,92,0.0,3.0,50,0.00,,,0.00,VWS V13.01,2013-03-31 02:45:00,
2013-03-30 22:50:00,51.1,33.1,28.95,East,80,0.0,0.0,50,0.00,,,0.00,VWS V13.01,2013-03-31 02:50:00,
2013-03-30 22:55:00,50.8,33.3,28.95,ENE,76,0.0,1.0,51,0.00,,,0.00,VWS V13.01,2013-03-31 02:55:00,
2013-03-30 23:00:00,50.7,33.2,28.95,ENE,76,0.0,0.0,51,0.00,,,0.00,VWS V13.01,2013-03-31 03:00:00,
2013-03-30 23:05:00,50.3,32.9,28.95,ENE,76,0.0,2.0,51,0.00,,,0.00,VWS V13.01,2013-03-31 03:05:00,
2013-03-30 23:10:00,50.2,33.3,28.95,ENE,76,0.0,1.0,52,0.00,,,0.00,VWS V13.01,2013-03-31 03:10:00,
2013-03-30 23:15:00,49.9,33.0,28.95,ENE,76,0.0,0.0,52,0.00,,,0.00,VWS V13.01,2013-03-31 03:15:00,
2013-03-30 23:20:00,49.7,32.8,28.95,ENE,76,0.0,0.0,52,0.00,,,0.00,VWS V13.01,2013-03-31 03:20:00,
2013-03-30 23:25:00,49.5,32.6,28.95,ENE,76,0.0,0.0,52,0.00,,,0.00,VWS V13.01,2013-03-31 03:25:00,
2013-03-30 23:30:00,49.4,33.0,28.95,ENE,76,0.0,0.0,53,0.00,,,0.00,VWS V13.01,2013-03-31 03:30:00,
2013-03-30 23:35:00,49.4,33.0,28.95,ENE,76,0.0,0.0,53,0.00,,,0.00,VWS V13.01,2013-03-31 03:35:00,
2013-03-30 23:40:00,49.4,33.0,28.95,ENE,76,0.0,1.0,53,0.00,,,0.00,VWS V13.01,2013-03-31 03:40:00,
2013-03-30 23:45:00,49.3,32.9,28.95,ENE,76,0.0,0.0,53,0.00,,,0.00,VWS V13.01,2013-03-31 03:45:00,
2013-03-30 23:50:00,49.2,33.3,28.95,ENE,76,0.0,0.0,54,0.00,,,0.00,VWS V13.01,2013-03-31 03:50:00,
2013-03-30 23:55:00,49.1,33.2,28.95,ENE,76,0.0,0.0,54,0.00,,,0.00,VWS V13.01,2013-03-31 03:55:00,